Weather History for KMYV - June, 2013

Change the Weather History Date:

Wednesday, June 26, 2013

  Actual Average Record
Temperature  
Mean Temperature 76 °F -  
Max Temperature 90 °F 93 °F 106 °F (1961)
Min Temperature 63 °F 60 °F 51 °F (1965)
Cooling Degree Days 11    
Growing Degree Days 26 (Base 50)    
Moisture  
Dew Point 63 °F    
Average Humidity 67    
Maximum Humidity 97    
Minimum Humidity 40    
Precipitation  
Precipitation 0.00 in - - ()
Sea Level Pressure  
Sea Level Pressure 29.99 in    
Wind  
Wind Speed 7 mph (South)    
Max Wind Speed 12 mph    
Max Gust Speed 17 mph    
Visibility 10 miles    
Events      
Averages and records for this station are not official NWS values.
T = Trace of Precipitation, MM = Missing Value Source: NWS Daily Summary

Daily Weather History Graph

Daily Weather History Graph

Search for Another Location

Airport or City:

Trip Planner

Search our weather history database for the weather conditions in past years. The results will help you decide how hot, cold, wet, or windy it might be!

Date:

Astronomy

Jun. 26, 2013 Rise Set
Actual Time 5:42 AM PDT 8:36 PM PDT
Civil Twilight 5:09 AM PDT 9:08 PM PDT
Nautical Twilight 4:29 AM PDT 9:49 PM PDT
Astronomical Twilight 3:42 AM PDT 10:35 PM PDT
Moon 11:04 PM PDT (6/26) 9:38 AM PDT (6/26)
Length of Visible Light 15h 58m
Length of Day
14h 54m
Waning Gibbous, 84% of the Moon is Illuminated
Jun 26
Waning Gibbous
Jun 29
Last Quarter
Jul 8
New
Jul 15
First Quarter
Jul 22
Full

Hourly Weather History & Observations

Time (PDT) Temp. Heat Index Dew Point Humidity Pressure Visibility Wind Dir Wind Speed Gust Speed Precip Events Conditions
12:53 AM 68.0 °F - 64.0 °F 87% 29.96 in 10.0 mi SSE 5.8 mph - N/A   Overcast
1:53 AM 66.9 °F - 63.0 °F 87% 29.96 in 10.0 mi SSE 8.1 mph - N/A   Mostly Cloudy
2:53 AM 66.0 °F - 63.0 °F 90% 29.97 in 10.0 mi SE 6.9 mph - N/A   Mostly Cloudy
3:53 AM 64.9 °F - 62.1 °F 90% 29.97 in 10.0 mi SSE 6.9 mph - N/A   Overcast
4:53 AM 64.0 °F - 62.1 °F 93% 29.98 in 10.0 mi SE 5.8 mph - N/A   Clear
5:53 AM 63.0 °F - 62.1 °F 97% 30.00 in 10.0 mi SE 3.5 mph - N/A   Clear
6:53 AM 64.9 °F - 63.0 °F 93% 30.01 in 10.0 mi SSE 8.1 mph - N/A   Clear
7:20 AM 66.2 °F - 62.6 °F 88% 30.00 in 10.0 mi SSE 8.1 mph - N/A   Partly Cloudy
7:53 AM 68.0 °F - 63.0 °F 84% 30.03 in 10.0 mi SSE 5.8 mph - N/A   Partly Cloudy
8:53 AM 71.1 °F - 64.0 °F 78% 30.03 in 10.0 mi SE 8.1 mph - N/A   Partly Cloudy
9:53 AM 75.0 °F - 64.0 °F 69% 30.02 in 10.0 mi SSE 9.2 mph - N/A   Clear
10:53 AM 79.0 °F - 64.0 °F 60% 30.03 in 10.0 mi South 9.2 mph - N/A   Clear
11:53 AM 82.0 °F 83.4 °F 64.0 °F 54% 30.03 in 10.0 mi South 5.8 mph - N/A   Partly Cloudy
12:53 PM 84.9 °F 85.4 °F 62.1 °F 46% 30.02 in 10.0 mi SSW 9.2 mph - N/A   Clear
1:53 PM 87.1 °F 87.0 °F 61.0 °F 41% 30.01 in 10.0 mi SW 11.5 mph 17.3 mph N/A   Clear
2:53 PM 87.1 °F 87.5 °F 62.1 °F 43% 30.00 in 10.0 mi SW 4.6 mph - N/A   Clear
3:53 PM 88.0 °F 88.4 °F 62.1 °F 42% 29.98 in 10.0 mi SSW 9.2 mph - N/A   Clear
4:53 PM 88.0 °F 87.9 °F 61.0 °F 40% 29.97 in 10.0 mi Variable 3.5 mph - N/A   Clear
5:53 PM 89.1 °F 89.3 °F 62.1 °F 40% 29.96 in 10.0 mi South 5.8 mph - N/A   Clear
6:53 PM 87.1 °F 87.8 °F 63.0 °F 44% 29.95 in 10.0 mi SSW 4.6 mph - N/A   Clear
7:53 PM 84.9 °F 85.9 °F 63.0 °F 48% 29.95 in 10.0 mi WSW 4.6 mph - N/A   Clear
8:53 PM 80.1 °F 81.9 °F 64.9 °F 60% 29.96 in 10.0 mi SSW 3.5 mph - N/A   Clear
9:53 PM 77.0 °F - 64.9 °F 66% 29.98 in 10.0 mi SW 5.8 mph - N/A   Clear
10:53 PM 75.0 °F - 64.0 °F 69% 29.99 in 10.0 mi East 3.5 mph - N/A   Clear
11:53 PM 72.0 °F - 64.9 °F 78% 30.00 in 10.0 mi East 4.6 mph - N/A   Clear